Facebook Twitter

Wetterstation Kufstein

Messwerte
  Temperatur Wetter Niederschlag Luftdruck Wind
Mo, 06:00 Uhr 0° - 0 mm 1019.4 hPa 0 km/h
Mo, 05:00 Uhr 0° - 0 mm 1019.9 hPa 4 km/h W
Mo, 04:00 Uhr 1° - 0 mm 1019.8 hPa 7 km/h W
Mo, 03:00 Uhr 0° - 0 mm 1020.3 hPa 7 km/h W
Mo, 02:00 Uhr 1° - 0 mm 1020.7 hPa 7 km/h W
Mo, 01:00 Uhr 1° - 0 mm 1021.3 hPa 14 km/h W
Mo, 00:00 Uhr 1° - 0 mm 1021.8 hPa 7 km/h W
So, 23:00 Uhr 1° - 0 mm 1022.6 hPa 11 km/h W
So, 22:00 Uhr 1° - 0 mm 1023.7 hPa 11 km/h W
So, 21:00 Uhr 1° - 0 mm 1024.2 hPa 4 km/h W
So, 20:00 Uhr 1° - 0 mm 1024.7 hPa 4 km/h W
So, 19:00 Uhr 1° - 0 mm 1025 hPa 0 km/h W
So, 18:00 Uhr 1° - 0 mm 1026 hPa 4 km/h NW
So, 17:00 Uhr 3° - 0 mm 1026 hPa 0 km/h NW
So, 16:00 Uhr 5° - 0 mm 1025.6 hPa 4 km/h W
So, 15:00 Uhr 7° - 0 mm 1025.7 hPa 4 km/h SW
So, 14:00 Uhr 6° - 0 mm 1026.3 hPa 7 km/h SW
So, 13:00 Uhr 5° - 0 mm 1027.1 hPa 7 km/h W
So, 12:00 Uhr 4° - 0 mm 1028.2 hPa 11 km/h SW
So, 11:00 Uhr 3° - 0 mm 1029.9 hPa 11 km/h SW

Alle Zeitangaben MEZ